Dewpoint
44 44 43 44 46 47 49 50 52 55 55 54 53 52 51 50 47 36 30 36 30 23 22 21 23 22 20 23 22 19 18 17 14 14 17 18 13 9 3 4 8 10 7 4 4 0 6 1 5 -3 6 4 3 -2
42 43 44 43 43 44 46 48 49 51 53 54 53 53 52 51 47 37 28 33 35 32 26 24 23 23 22 24 25 20 23 20 21 23 21 21 18 10 6 13 6 10 15 12 8 10 5 1 -0 2 4 6 6 -0
39 39 42 44 43 43 43 45 47 49 50 52 54 53 52 51 49 40 32 33 32 32 29 24 21 23 25 23 25 21 20 25 21 23 26 24 17 16 11 7 5 9 11 8 5 6 3 4 4 4 5 6 8 9
39 39 39 41 43 43 43 43 45 47 48 49 51 53 53 52 50 44 35 34 33 33 27 25 24 23 26 26 24 24 22 22 23 25 25 23 20 21 17 17 10 13 10 9 7 6 6 5 4 3 7 8 9 10
40 39 39 39 41 43 43 43 42 44 46 48 49 49 51 52 51 45 39 37 38 36 32 25 24 24 25 24 22 22 20 18 18 18 14 14 19 19 11 10 9 12 16 10 21 13 6 -3 5 8 8 9 10 7
40 40 39 39 39 41 43 43 42 42 43 47 48 49 50 50 48 40 35 38 37 37 32 28 27 23 23 23 21 20 25 28 27 20 15 23 16 17 10 13 16 17 17 18 18 4 5 6 9 9 9 10 10 8
41 40 40 39 39 39 40 43 42 42 42 43 46 47 47 48 45 38 36 37 37 38 31 28 28 25 25 25 25 25 26 24 24 19 14 12 12 17 11 13 23 22 20 15 11 12 10 9 10 11 11 10 12 7
41 41 41 40 40 39 39 41 43 42 42 42 43 47 49 44 39 33 36 39 38 33 32 29 25 19 26 21 20 19 14 20 21 21 14 13 13 15 11 15 21 26 19 17 14 13 14 12 11 10 10 7 6 2
42 42 41 41 41 40 39 39 42 42 42 47 46 43 39 35 32 31 39 38 37 33 27 29 24 14 24 23 23 23 24 17 22 18 17 17 12 10 13 16 20 23 18 20 18 15 13 12 12 9 7 5 4 2
43 43 42 42 41 41 40 39 40 42 43 42 37 34 29 31 38 37 33 30 30 31 30 26 20 17 20 20 19 20 22 19 13 12 16 12 11 13 12 18 23 26 21 16 14 12 11 11 12 8 7 3 4 -0
43 43 43 43 43 42 40 39 40 42 43 36 31 27 32 38 32 30 26 23 18 18 23 20 19 15 21 17 18 21 17 19 13 12 11 8 7 8 16 20 23 25 21 17 19 17 17 16 13 7 4 0 0 -2
43 43 43 43 43 42 41 40 40 39 36 35 33 33 32 27 24 19 16 14 20 16 21 19 16 18 19 25 22 20 16 17 12 15 11 6 11 16 23 21 22 22 20 17 16 14 12 11 8 9 5 5 4 1
43 43 43 43 43 42 41 40 40 40 37 33 31 27 25 24 18 16 11 15 11 17 21 20 17 21 22 24 21 19 14 12 17 9 5 8 12 15 14 13 18 17 19 15 11 11 10 4 4 8 6 0 -0 2
43 43 43 43 43 43 42 41 41 39 34 31 25 19 17 13 14 15 13 14 19 14 18 15 15 18 22 18 19 14 17 14 8 5 4 13 16 22 13 12 14 14 14 12 9 9 9 8 8 8 8 8 9 8
42 42 42 43 43 43 43 42 41 38 33 29 27 18 17 15 6 10 10 14 16 21 19 19 20 20 17 18 16 14 10 6 7 8 13 17 18 17 14 15 14 13 13 10 8 9 9 8 8 9 10 11 10 12
41 41 39 42 43 43 43 41 38 33 32 30 29 22 15 11 10 21 11 11 18 21 19 20 15 16 14 17 10 5 6 5 13 13 18 21 19 15 13 14 13 11 12 11 10 10 8 8 9 11 11 11 11 10
40 36 39 41 42 42 42 36 34 29 29 28 23 21 24 12 16 13 19 19 21 21 15 20 16 12 18 13 8 10 8 13 19 21 22 21 18 14 11 13 13 12 13 13 11 7 8 10 11 12 11 10 10 9
37 36 39 41 41 40 36 35 31 29 25 27 19 17 20 18 16 14 12 21 22 24 25 22 22 16 12 6 8 12 14 18 20 20 20 20 15 11 10 15 17 16 15 14 13 12 11 11 11 10 11 11 9 7
38 37 39 40 39 35 31 30 30 25 22 15 14 12 13 15 15 12 15 22 18 26 26 22 20 17 13 14 13 15 19 21 19 17 13 13 12 12 12 18 18 12 15 14 13 12 12 12 10 11 12 11 11 11
41 40 40 40 39 31 28 25 23 19 18 18 8 12 8 10 10 14 23 25 25 25 21 18 16 16 16 19 19 18 21 22 19 19 18 17 13 19 18 15 10 15 15 13 14 16 12 11 11 12 12 12 11 9
40 38 40 39 29 29 26 19 16 12 7 11 0 9 5 9 14 14 20 25 22 20 16 18 14 20 18 16 20 22 23 20 20 21 22 18 19 19 18 17 16 15 13 12 13 12 14 11 11 12 13 14 13 13
33 37 28 28 22 19 18 18 15 13 14 5 11 9 1 2 13 17 22 21 17 14 15 14 21 21 20 19 20 20 18 21 22 23 25 24 17 17 16 15 15 14 14 14 15 15 13 12 12 13 13 13 15 11
34 31 25 23 18 17 10 13 15 10 8 4 2 7 5 1 3 17 12 10 11 12 14 15 15 17 20 18 16 17 16 16 20 20 18 16 18 18 17 17 17 16 14 14 15 15 13 15 16 13 13 13 11 8
31 26 22 19 15 7 8 2 9 9 7 4 2 4 9 9 13 10 7 3 9 12 14 15 16 18 13 10 12 16 18 18 21 20 20 18 17 16 17 16 16 17 15 14 14 15 15 15 18 14 13 10 8 7
24 20 20 9 5 2 -2 0 -4 0 0 0 1 -1 5 10 8 7 -1 3 7 7 5 4 4 8 11 15 16 16 15 19 19 19 19 20 19 16 15 15 15 15 15 14 13 14 15 15 14 12 11 9 9 6
18 14 8 3 -1 3 1 -2 -0 0 4 2 5 5 2 4 1 0 -1 -3 -4 0 1 1 1 2 4 7 11 14 17 19 21 20 18 20 19 17 15 13 12 13 16 16 15 13 13 14 14 12 11 14 16 5
8 8 8 14 9 6 6 6 6 4 2 4 1 1 3 3 3 0 3 1 -1 -1 0 1 1 2 3 6 8 10 16 20 21 19 19 20 20 21 18 15 14 14 16 17 16 14 13 12 12 12 10 7 7 7
13 6 7 8 7 6 5 6 7 7 8 7 5 -0 -0 -0 -3 -4 -0 -1 -2 -2 -2 -0 5 6 7 8 9 12 14 15 15 15 15 14 14 17 18 18 18 21 17 16 16 15 14 13 12 11 9 9 6 4
5 10 10 4 8 10 10 9 7 7 6 8 6 3 -4 -4 -3 -4 -3 -1 -1 -2 -3 -2 -1 -1 3 9 9 12 14 15 13 11 12 11 11 13 15 18 20 19 16 18 20 16 13 12 12 10 9 8 8 4
3 9 6 1 4 5 -0 0 1 3 5 6 6 3 -1 -2 -2 -0 -3 -6 -7 -7 -4 -5 -3 -6 -6 -3 5 9 11 11 12 16 14 13 15 14 16 16 16 16 17 17 16 16 19 17 16 10 6 4 3 2
8 7 4 3 -0 -2 -1 1 3 5 5 5 5 2 -2 -3 -1 -0 -2 -3 -4 -5 -4 -6 -7 -5 -7 -7 -6 -4 4 11 9 12 17 16 14 14 14 14 15 16 16 16 16 17 17 14 9 6 6 5 4 6
5 3 6 3 -1 -1 1 2 4 4 4 2 -0 2 -0 -3 -9 -5 -1 -2 -5 -6 -0 -2 -6 -6 -4 -4 -2 -1 10 5 7 10 10 13 15 14 12 12 14 15 15 15 16 16 13 12 9 7 6 5 4 4
2 3 2 -0 -3 -3 0 2 3 -0 -3 -5 -5 -3 -4 -5 -11 -4 0 1 -2 -3 -3 -2 -1 -2 -2 -1 -0 1 6 6 16 22 20 17 15 13 11 11 12 12 12 11 11 11 10 9 8 7 7 6 5 3
Lifted_Index
18 18 18 16 14 12 10 9 8 7 6 6 7 7 7 8 9 9 9 10 11 11 12 13 13 13 13 12 11 11 9 8 7 6 7 7 7 7 7 6 5 4 3 3 3 3 4 6 8 9 11 14 16 17
19 19 18 18 16 15 12 10 9 8 7 7 7 7 7 8 8 9 9 9 10 11 11 12 13 14 14 14 13 11 10 9 8 7 7 7 7 7 6 6 5 4 4 4 3 3 5 7 9 11 14 16 17 17
21 20 19 19 18 17 16 13 11 10 9 8 8 8 7 7 7 8 8 8 9 9 10 10 11 13 15 16 15 13 12 11 10 9 8 7 7 7 6 6 6 6 5 4 4 4 6 8 10 13 16 17 18 19
20 20 20 19 19 18 17 16 14 12 11 10 9 8 8 7 7 7 7 8 8 8 8 9 10 12 14 15 16 15 14 13 12 10 8 7 7 7 7 7 7 6 5 4 4 5 6 8 10 13 16 18 19 19
19 19 20 19 19 18 18 17 16 14 12 11 10 9 9 8 8 8 8 8 8 8 7 8 10 11 13 14 14 14 13 12 11 9 8 8 8 7 7 7 7 6 4 4 4 5 6 8 11 14 16 18 19 19
18 18 19 19 19 18 17 17 17 16 15 13 11 10 9 9 8 8 8 9 10 9 7 7 9 11 13 13 13 12 12 11 10 9 8 8 9 8 7 6 6 5 4 4 4 5 7 9 11 14 17 18 19 19
17 17 18 18 18 18 17 17 17 17 16 15 13 11 9 9 8 8 8 10 11 10 8 6 8 11 13 13 12 12 12 10 10 9 8 8 8 8 6 5 4 4 4 4 5 6 7 9 12 15 17 19 19 19
16 17 17 17 17 18 17 17 16 17 17 16 14 12 10 9 9 9 9 11 11 10 8 7 7 10 13 12 12 12 11 10 10 9 8 7 8 7 6 5 4 4 4 5 6 7 8 10 13 16 18 18 18 18
16 16 16 16 16 17 17 17 16 16 16 15 14 13 12 11 11 11 11 12 12 10 9 8 8 9 11 11 11 11 10 9 9 8 8 8 7 7 6 5 4 4 5 5 6 7 8 10 13 15 17 18 18 18
15 15 15 15 15 16 16 16 16 16 15 15 14 13 13 13 13 12 12 11 11 11 11 10 10 10 10 9 9 9 8 7 7 7 8 7 7 7 7 6 5 5 5 5 6 6 8 11 13 15 17 18 18 18
13 14 14 14 14 14 15 15 15 15 15 14 14 14 14 14 13 12 11 11 12 12 12 12 11 10 9 8 8 8 7 6 6 7 7 7 7 7 6 6 6 5 5 5 6 7 10 13 15 16 17 18 19 19
12 12 12 12 13 13 14 14 14 14 14 14 13 13 13 13 12 11 11 11 12 12 12 11 10 9 9 9 8 8 7 7 7 7 7 7 7 6 6 6 6 6 5 6 7 9 12 15 16 17 18 18 19 20
11 11 11 11 12 12 12 13 13 14 14 13 12 12 11 11 11 11 10 10 10 10 10 9 8 8 9 9 8 7 7 7 7 7 7 7 6 5 5 6 6 6 6 7 8 11 14 16 17 18 18 19 20 20
10 10 11 11 11 11 11 12 13 13 13 12 11 10 10 10 11 11 10 9 9 9 9 8 7 7 7 7 7 6 6 6 7 6 6 5 4 4 4 5 6 6 6 7 9 12 15 17 17 18 19 20 20 20
10 10 10 10 10 10 11 11 12 12 12 11 10 10 10 11 11 10 9 9 8 8 7 6 6 5 5 5 5 5 5 5 6 5 4 4 4 4 4 4 5 6 6 8 10 13 16 17 18 18 19 20 21 21
10 10 10 10 10 10 10 10 10 11 11 10 10 10 11 10 10 9 8 8 7 6 6 5 4 4 3 4 4 4 4 4 4 4 3 3 4 4 4 4 5 6 7 9 12 15 17 18 18 18 19 20 21 21
10 10 10 10 9 9 9 8 9 9 9 10 11 11 11 10 9 8 7 6 5 5 4 3 3 3 3 3 4 4 3 3 3 3 3 4 4 4 4 5 6 7 8 11 14 16 17 18 18 18 18 19 20 21
8 9 8 8 7 7 6 6 6 7 8 9 10 10 9 8 7 6 5 5 4 3 3 2 2 2 3 3 3 3 3 3 3 4 4 4 4 5 5 6 8 9 11 13 15 17 18 18 18 18 19 19 20 20
6 6 5 4 4 4 3 3 3 4 5 6 7 7 7 6 6 5 4 4 3 3 3 3 3 3 3 3 3 4 4 4 4 4 4 4 5 5 6 8 9 11 13 15 16 17 18 18 19 19 19 19 20 20
3 3 2 2 1 1 1 1 2 2 2 3 4 4 4 5 4 4 4 3 3 3 3 4 4 4 4 4 4 4 5 5 4 4 4 5 5 6 7 9 11 13 15 16 17 17 18 18 19 19 20 20 20 20
1 1 1 1 1 1 1 1 2 1 1 1 2 3 3 4 4 4 4 4 4 4 4 4 4 4 4 4 4 5 5 5 5 5 5 6 6 7 8 10 13 15 15 16 16 17 18 18 19 19 20 20 20 20
1 1 1 1 1 1 1 2 1 1 1 1 1 2 3 3 4 4 4 4 4 4 4 4 4 4 3 4 4 5 5 5 5 6 6 7 7 7 9 11 14 15 15 15 16 17 17 18 19 19 19 19 19 19
1 1 1 1 1 1 2 2 1 1 1 1 1 2 2 3 4 4 4 4 5 4 4 4 3 3 3 4 4 4 5 6 7 7 8 8 8 8 10 12 14 14 14 15 16 17 17 18 18 19 19 19 19 19
1 1 1 1 1 1 1 1 1 1 1 1 1 2 2 3 3 3 4 4 4 4 4 3 3 3 4 4 3 4 6 7 8 8 9 9 9 9 11 13 14 14 14 15 16 17 17 18 18 18 18 18 18 18
1 1 1 1 1 1 1 1 1 1 1 1 1 2 2 3 3 3 4 4 4 3 3 3 3 4 4 4 4 4 7 8 9 9 9 10 10 10 11 12 14 14 15 15 15 16 16 17 17 17 17 18 18 18
1 1 2 1 1 1 1 1 1 1 1 1 1 2 2 3 3 3 4 4 4 4 5 5 5 4 4 5 5 6 8 10 10 10 10 11 11 11 11 12 13 15 15 15 15 15 16 16 17 17 17 17 17 17
1 2 2 1 1 1 1 1 1 1 1 1 1 2 2 2 3 4 4 5 5 7 8 8 7 6 6 6 7 9 10 11 12 12 12 13 13 13 12 13 14 14 15 15 15 16 16 16 16 16 17 17 17 17
2 2 2 1 1 1 1 1 1 1 1 1 1 2 2 3 4 5 6 8 9 10 10 10 10 10 9 10 10 11 12 13 13 13 13 13 13 14 14 14 14 15 15 15 16 16 16 16 17 17 17 17 17 17
2 2 1 1 1 1 1 1 2 2 2 2 2 3 3 5 7 9 11 12 12 11 10 10 11 12 11 12 12 13 14 15 14 13 12 12 12 13 14 14 15 15 15 16 16 16 17 17 17 17 17 17 17 17
2 2 2 1 1 1 2 2 3 3 4 4 4 5 5 8 12 15 15 15 14 13 12 12 12 12 12 12 13 14 16 16 16 14 13 13 13 13 14 14 14 14 15 16 16 16 16 17 17 16 16 16 16 17
2 2 2 2 2 3 3 4 4 5 5 6 6 7 8 10 13 16 17 17 16 15 14 14 14 14 14 14 15 15 16 18 18 17 16 15 15 15 14 14 14 14 15 16 16 16 16 16 16 16 15 15 16 16
4 3 3 3 3 4 5 5 5 6 6 6 7 8 9 10 12 15 19 19 18 17 16 16 16 16 17 17 17 18 18 18 19 18 17 16 16 15 15 14 15 15 16 16 16 16 15 15 15 15 15 15 15 16
5 4 4 4 4 4 5 6 6 6 6 7 8 9 10 10 11 15 20 20 19 17 17 17 18 18 18 19 19 19 19 19 19 18 17 16 15 15 15 15 15 16 16 16 16 15 15 15 15 15 15 15 15 15